Regional Weather Roundup
Issued by NWS Newport/Morehead, NC

Current Version | Previous Version | Graphics & Text | Print | Product List | Glossary On
Versions: 1 2 3 4 5 6 7 8 9 10 11 12 13 14 15 16 17 18 19 20 21 22 23 24 25 26 27 28 29 30 31 32 33 34 35 36 37 38 39 40 41 42 43 44 45 46 47 48 49 50
000 ASUS42 KMHX 282325 RWRMHX WEATHER ROUNDUP FOR EASTERN NORTH CAROLINA NATIONAL WEATHER SERVICE NEWPORT/MOREHEAD CITY NC 700 PM EDT SUN MAY 28 2017 NOTE: "FAIR" INDICATES FEW OR NO CLOUDS BELOW 12,000 FEET WITH NO SIGNIFICANT WEATHER AND/OR OBSTRUCTIONS TO VISIBILITY NCZ015>017-031-032-045>047-102-103-290000- NORTH COAST CITY SKY/WX TMP DP RH WIND PRES REMARKS EDENTON MOSUNNY 82 75 80 CALM 29.80R ELIZABETH CITY CLOUDY 77 74 90 N7 29.79R KITTY HAWK CLOUDY 76 73 87 CALM 29.77R MANTEO PTSUNNY 79 69 72 NW6 29.79R $$ NCZ045>047-081-094-103-104-290000- CENTRAL COAST CITY SKY/WX TMP DP RH WIND PRES REMARKS FRISCO MOSUNNY 78 72 81 SW15G23 29.80R $$ NCZ095-097-098-100-101-290000- SOUTHERN COAST CITY SKY/WX TMP DP RH WIND PRES REMARKS BEAUFORT SUNNY 80 74 81 SW20G26 29.82S CEDAR ISLAND NOT AVBL JACKSONVILLE NOT AVBL PINEY ISLAND CLEAR N/A N/A N/A SW17G23 29.80 WILMINGTON MOSUNNY 85 72 65 S9 29.83S $$ NCZ011>013-027>030-043-044-078>080-089-090>093-098-290000- COASTAL PLAIN CITY SKY/WX TMP DP RH WIND PRES REMARKS AHOSKIE NOT AVBL CLINTON PTSUNNY 87 67 51 W5 29.81F ELIZABETHTOWN RAIN 87 68 52 SW5 29.82S GOLDSBORO PTSUNNY 88 64 45 SW12 29.78S GREENVILLE CLOUDY 86 68 54 CALM 29.82S HAVELOCK NOT AVBL KENANSVILLE CLOUDY 86 64 48 W7 29.81S KINSTON PTSUNNY 86 63 45 S9 29.81R NEW BERN CLOUDY 87 66 49 SW6 29.81R RICHLANDS CLOUDY 87 67 51 SW6 29.82R ROCKY MOUNT CLOUDY 84 66 54 W5 29.80R WASHINGTON CLOUDY 84 66 53 W5 29.79S WHITEVILLE MOSUNNY 86 69 55 SW6 29.82R $$ AMZ130-135-150-152-154-156-158-170-250-252-270-ANZ085-086-088-633-658-670-290000- MARINE OBSERVATIONS STATION/POSITION TIME TEMP WIND PRES WAVE SWELL AIR SEA DIR/SP/G HT/PER HT/PER (UTC) (F) (DEG/KT/KT) (MB) (FT/S) (FT/S) CHESAPEAKE LIGHT NOT AVBL 64 E VA BEACH 2250 68 66 200/ 10/ 12 1008.5 3/ 7 2/ 7 DUCK 2254 71 66 360/ 1/ 2 1008.1 2 E DUCK 2300 69 N/A 2/ 7 OREGON INLET 2254 78 74 270/ 11/ 19 1008.3 13E OREGON INLT 2248 66 N/A 3/ 4 2/14 HATTERAS CG 2254 78 75 220/ 13/ 20 1009.0 DIAMOND BUOY 2250 78 76 220/ 21/ 25 1009.2 4/ 6 2/ 9 CAPE LOOKOUT 2300 78 230/ 14/ 18 1009.7 BEAUFORT LAB 2254 79 76 220/ 7/ 16 1009.2 30 SE NEW RVR IN 2308 78 77 230/ 16/ 19 1010.8 30 SE NEW RVR IN 2313 77 N/A 5/ 6 27 SE WRIGHTSVLE 2308 77 77 230/ 14/ 21 1010.2 5 SE WRIGHTSVLE 2308 78 76 200/ 12/ 17 1010.3 225 S CAPE HAT 2250 77 77 210/ 14/ 16 1014.6 3/ 6 2/ 7 41 SE CHARLESTON 2310 78 76 210/ 16/ 17 1011.8 $$

USA.gov is the U.S. government's official web portal to all federal, state and local government web resources and services.